QPF
0.00 0.00 0.00 0.00 0.00 0.00 0.00 0.00 0.00 0.00 0.00 0.00 0.00 0.00 0.00 0.00 0.00 0.00 0.00 0.00 0.00 0.00 0.00 0.00 0.00 0.00 0.00 0.00 0.00 0.00 0.00 0.00 0.00 0.00 0.00 0.00 0.00 0.00 0.00 0.00 0.00 0.00 0.00 0.00
0.00 0.00 0.00 0.00 0.00 0.00 0.00 0.00 0.00 0.00 0.00 0.00 0.00 0.00 0.00 0.00 0.00 0.00 0.00 0.00 0.00 0.00 0.00 0.00 0.00 0.00 0.00 0.00 0.00 0.00 0.00 0.00 0.00 0.00 0.00 0.00 0.00 0.00 0.00 0.00 0.00 0.00 0.00 0.00
0.00 0.00 0.00 0.00 0.00 0.00 0.00 0.00 0.00 0.00 0.00 0.00 0.00 0.00 0.00 0.00 0.00 0.00 0.00 0.00 0.00 0.00 0.00 0.00 0.00 0.00 0.00 0.00 0.00 0.00 0.00 0.00 0.00 0.00 0.00 0.00 0.00 0.00 0.00 0.00 0.00 0.00 0.00 0.00
0.00 0.00 0.00 0.00 0.00 0.00 0.00 0.00 0.00 0.00 0.00 0.00 0.00 0.00 0.00 0.00 0.00 0.00 0.00 0.00 0.00 0.00 0.00 0.00 0.00 0.00 0.00 0.00 0.00 0.00 0.00 0.00 0.00 0.00 0.00 0.00 0.00 0.00 0.00 0.00 0.00 0.00 0.00 0.00
0.00 0.00 0.00 0.00 0.00 0.00 0.00 0.00 0.00 0.00 0.00 0.00 0.00 0.00 0.00 0.00 0.00 0.00 0.00 0.00 0.00 0.00 0.00 0.00 0.00 0.00 0.00 0.00 0.00 0.00 0.00 0.00 0.00 0.00 0.00 0.00 0.00 0.00 0.00 0.00 0.00 0.00 0.00 0.00
0.00 0.00 0.00 0.00 0.00 0.00 0.00 0.00 0.00 0.00 0.00 0.00 0.00 0.00 0.00 0.00 0.00 0.00 0.00 0.00 0.00 0.00 0.00 0.00 0.00 0.00 0.00 0.00 0.00 0.00 0.00 0.00 0.00 0.00 0.00 0.00 0.00 0.00 0.00 0.00 0.00 0.00 0.00 0.00
0.00 0.00 0.00 0.00 0.00 0.00 0.00 0.00 0.00 0.00 0.00 0.00 0.00 0.00 0.00 0.00 0.00 0.00 0.00 0.00 0.00 0.00 0.00 0.00 0.00 0.00 0.00 0.00 0.00 0.00 0.00 0.00 0.00 0.00 0.00 0.00 0.00 0.00 0.00 0.00 0.00 0.00 0.00 0.00
0.00 0.00 0.00 0.00 0.00 0.00 0.00 0.00 0.00 0.00 0.00 0.00 0.00 0.00 0.00 0.00 0.00 0.00 0.00 0.00 0.00 0.00 0.00 0.00 0.00 0.00 0.00 0.00 0.00 0.00 0.00 0.00 0.00 0.00 0.00 0.00 0.00 0.00 0.00 0.00 0.00 0.00 0.00 0.00
0.00 0.00 0.00 0.00 0.00 0.00 0.00 0.00 0.00 0.00 0.00 0.00 0.00 0.00 0.00 0.00 0.00 0.00 0.00 0.00 0.00 0.00 0.00 0.00 0.00 0.00 0.00 0.00 0.00 0.00 0.00 0.00 0.00 0.00 0.00 0.00 0.00 0.00 0.00 0.00 0.00 0.00 0.00 0.00
0.00 0.00 0.00 0.00 0.00 0.00 0.00 0.00 0.00 0.00 0.00 0.00 0.00 0.00 0.00 0.00 0.00 0.00 0.00 0.00 0.00 0.00 0.00 0.00 0.00 0.00 0.00 0.00 0.00 0.00 0.00 0.00 0.00 0.00 0.00 0.00 0.00 0.00 0.00 0.00 0.00 0.00 0.00 0.00
0.00 0.00 0.00 0.00 0.00 0.00 0.00 0.00 0.00 0.00 0.00 0.00 0.00 0.00 0.00 0.00 0.00 0.00 0.00 0.00 0.00 0.00 0.00 0.00 0.00 0.00 0.00 0.00 0.00 0.00 0.00 0.00 0.00 0.00 0.00 0.00 0.00 0.00 0.00 0.00 0.00 0.00 0.00 0.00
0.00 0.00 0.00 0.00 0.00 0.00 0.00 0.00 0.00 0.00 0.00 0.00 0.00 0.00 0.00 0.00 0.00 0.00 0.00 0.00 0.00 0.00 0.00 0.00 0.00 0.00 0.00 0.00 0.00 0.00 0.00 0.00 0.00 0.00 0.00 0.00 0.00 0.00 0.00 0.00 0.00 0.00 0.00 0.00
0.00 0.00 0.00 0.00 0.00 0.00 0.00 0.00 0.00 0.00 0.00 0.00 0.00 0.00 0.00 0.00 0.00 0.00 0.00 0.00 0.00 0.00 0.00 0.00 0.00 0.00 0.00 0.00 0.00 0.00 0.00 0.00 0.00 0.00 0.00 0.00 0.00 0.00 0.00 0.00 0.00 0.00 0.00 0.00
0.00 0.00 0.00 0.00 0.00 0.00 0.00 0.00 0.00 0.00 0.00 0.00 0.00 0.00 0.00 0.00 0.00 0.00 0.00 0.00 0.00 0.00 0.00 0.00 0.00 0.00 0.00 0.00 0.00 0.00 0.00 0.00 0.00 0.00 0.00 0.00 0.00 0.00 0.00 0.00 0.00 0.00 0.00 0.00
0.00 0.00 0.00 0.00 0.00 0.00 0.00 0.00 0.00 0.00 0.00 0.00 0.00 0.00 0.00 0.00 0.00 0.00 0.00 0.00 0.00 0.00 0.00 0.00 0.00 0.00 0.00 0.00 0.00 0.00 0.00 0.00 0.00 0.00 0.00 0.00 0.00 0.00 0.00 0.00 0.00 0.00 0.00 0.00
0.00 0.00 0.00 0.00 0.00 0.00 0.00 0.00 0.00 0.00 0.00 0.00 0.00 0.00 0.00 0.00 0.00 0.00 0.00 0.00 0.00 0.00 0.00 0.00 0.00 0.00 0.00 0.00 0.00 0.00 0.00 0.00 0.00 0.00 0.00 0.00 0.00 0.00 0.00 0.00 0.00 0.00 0.00 0.00
0.00 0.00 0.00 0.00 0.00 0.00 0.00 0.00 0.00 0.00 0.00 0.00 0.00 0.00 0.00 0.00 0.00 0.00 0.00 0.00 0.00 0.00 0.00 0.00 0.00 0.00 0.00 0.00 0.00 0.00 0.00 0.00 0.00 0.00 0.00 0.00 0.00 0.00 0.00 0.00 0.00 0.00 0.00 0.00
0.00 0.00 0.00 0.00 0.00 0.00 0.00 0.00 0.00 0.00 0.00 0.00 0.00 0.00 0.00 0.00 0.00 0.00 0.00 0.00 0.00 0.00 0.00 0.00 0.00 0.00 0.00 0.00 0.00 0.00 0.00 0.00 0.00 0.00 0.00 0.00 0.00 0.00 0.00 0.00 0.00 0.00 0.00 0.00
0.00 0.00 0.00 0.00 0.00 0.00 0.00 0.00 0.00 0.00 0.00 0.00 0.00 0.00 0.00 0.00 0.00 0.00 0.00 0.00 0.00 0.00 0.00 0.00 0.00 0.00 0.00 0.00 0.00 0.00 0.00 0.00 0.00 0.00 0.00 0.00 0.00 0.00 0.00 0.00 0.00 0.00 0.00 0.00
0.00 0.00 0.00 0.00 0.00 0.00 0.00 0.00 0.00 0.00 0.00 0.00 0.00 0.00 0.00 0.00 0.00 0.00 0.00 0.00 0.00 0.00 0.00 0.00 0.00 0.00 0.00 0.00 0.00 0.00 0.00 0.00 0.00 0.00 0.00 0.00 0.00 0.00 0.00 0.00 0.00 0.00 0.00 0.00
0.00 0.00 0.00 0.00 0.00 0.00 0.00 0.00 0.00 0.00 0.00 0.00 0.00 0.00 0.00 0.00 0.00 0.00 0.00 0.00 0.00 0.00 0.00 0.00 0.00 0.00 0.00 0.00 0.00 0.00 0.00 0.00 0.00 0.00 0.00 0.00 0.00 0.00 0.00 0.00 0.00 0.00 0.00 0.00
0.00 0.00 0.00 0.00 0.00 0.00 0.00 0.00 0.00 0.00 0.00 0.00 0.00 0.00 0.00 0.00 0.00 0.00 0.00 0.00 0.00 0.00 0.00 0.00 0.00 0.00 0.00 0.00 0.00 0.00 0.00 0.00 0.00 0.00 0.00 0.00 0.00 0.00 0.00 0.00 0.00 0.00 0.00 0.00
0.00 0.00 0.00 0.00 0.00 0.00 0.00 0.00 0.00 0.00 0.00 0.00 0.00 0.00 0.00 0.00 0.00 0.00 0.00 0.00 0.00 0.00 0.00 0.00 0.00 0.00 0.00 0.00 0.00 0.00 0.00 0.00 0.00 0.00 0.00 0.00 0.00 0.00 0.00 0.00 0.00 0.00 0.00 0.00
0.00 0.00 0.00 0.00 0.00 0.00 0.00 0.00 0.00 0.00 0.00 0.00 0.00 0.00 0.00 0.00 0.00 0.00 0.00 0.00 0.00 0.00 0.00 0.00 0.00 0.00 0.00 0.00 0.00 0.00 0.00 0.00 0.00 0.00 0.00 0.00 0.00 0.00 0.00 0.00 0.00 0.00 0.00 0.00
0.00 0.00 0.00 0.00 0.00 0.00 0.00 0.00 0.00 0.00 0.00 0.00 0.00 0.00 0.00 0.00 0.00 0.00 0.00 0.00 0.00 0.00 0.00 0.00 0.00 0.00 0.00 0.00 0.00 0.00 0.00 0.00 0.00 0.00 0.00 0.00 0.00 0.00 0.00 0.00 0.00 0.00 0.00 0.00
0.00 0.00 0.00 0.00 0.00 0.00 0.00 0.00 0.00 0.00 0.00 0.00 0.00 0.00 0.00 0.00 0.00 0.00 0.00 0.00 0.00 0.00 0.00 0.00 0.00 0.00 0.00 0.00 0.00 0.00 0.00 0.00 0.00 0.00 0.00 0.00 0.00 0.00 0.00 0.00 0.00 0.00 0.00 0.00
MSLP
1014.53 1014.23 1014.16 1014.34 1014.65 1014.78 1015.03 1015.62 1016.38 1017.49 1018.11 1018.00 1017.29 1016.56 1015.77 1015.91 1015.93 1015.79 1015.40 1015.71 1015.85 1016.14 1016.63 1017.26 1017.52 1017.66 1017.99 1018.31 1018.53 1018.77 1019.13 1019.64 1020.28 1020.96 1021.49 1021.91 1022.06 1022.47 1022.63 1022.73 1022.89 1023.11 1023.37 1023.51
1014.72 1014.18 1014.39 1015.20 1015.25 1015.30 1015.53 1015.87 1016.85 1017.88 1018.15 1018.17 1017.43 1016.43 1015.74 1015.59 1015.91 1016.03 1015.82 1015.94 1016.22 1016.29 1016.71 1017.04 1017.39 1017.65 1017.79 1017.74 1018.02 1018.28 1018.59 1019.13 1019.68 1020.10 1020.67 1021.10 1021.52 1021.87 1022.13 1022.42 1022.53 1022.67 1022.95 1023.13
1013.91 1014.90 1015.37 1015.40 1015.74 1015.65 1016.06 1016.01 1016.91 1017.33 1018.18 1018.29 1017.77 1016.07 1015.51 1015.96 1016.07 1016.44 1016.60 1016.92 1016.96 1017.04 1017.18 1017.39 1017.49 1017.68 1017.86 1017.96 1017.92 1018.03 1018.29 1018.75 1019.24 1019.73 1020.22 1020.83 1021.38 1021.78 1021.71 1021.94 1022.19 1022.31 1022.55 1022.80
1014.98 1016.08 1015.91 1015.75 1015.94 1015.78 1016.51 1016.70 1017.14 1017.62 1017.48 1017.98 1018.08 1016.18 1015.27 1015.72 1016.04 1016.57 1016.96 1017.33 1017.44 1017.67 1017.84 1017.92 1017.98 1017.93 1018.00 1018.14 1018.27 1018.33 1018.44 1018.69 1019.18 1019.58 1020.09 1020.46 1020.75 1020.90 1021.04 1021.31 1021.65 1021.85 1022.20 1022.28
1015.56 1016.03 1016.11 1016.22 1015.97 1016.36 1017.27 1017.28 1017.65 1017.99 1017.94 1018.02 1018.01 1017.40 1015.33 1015.81 1016.15 1016.55 1017.18 1017.79 1017.93 1018.21 1018.42 1018.48 1018.59 1018.61 1018.57 1018.42 1018.34 1018.41 1018.61 1018.80 1019.17 1019.46 1019.76 1020.21 1020.54 1020.78 1020.81 1020.87 1021.08 1021.23 1021.19 1021.49
1015.94 1016.16 1016.27 1016.60 1016.97 1016.87 1017.77 1017.68 1018.29 1018.44 1018.33 1018.26 1018.23 1017.85 1015.59 1015.52 1016.01 1016.88 1017.60 1018.06 1018.34 1018.70 1018.73 1018.99 1019.15 1019.16 1018.93 1018.71 1018.48 1018.58 1018.83 1019.17 1019.42 1019.68 1019.87 1020.20 1020.44 1020.69 1020.91 1021.02 1021.06 1021.02 1021.13 1021.15
1016.12 1016.57 1016.85 1016.77 1017.31 1018.05 1017.56 1017.05 1018.26 1018.77 1018.80 1018.65 1019.36 1018.66 1015.79 1016.22 1016.63 1017.34 1018.06 1018.43 1018.78 1019.05 1019.12 1019.35 1019.40 1019.48 1019.45 1019.34 1019.29 1019.22 1019.44 1019.87 1020.13 1020.36 1020.62 1020.75 1020.83 1020.95 1021.03 1021.15 1021.20 1021.33 1021.22 1021.07
1015.06 1016.98 1016.91 1016.79 1016.54 1016.59 1017.21 1016.62 1016.83 1017.76 1018.97 1019.04 1020.18 1018.02 1016.20 1016.90 1017.28 1017.96 1018.54 1019.07 1019.34 1019.44 1019.68 1019.84 1019.99 1020.17 1020.24 1020.27 1020.29 1020.12 1020.20 1020.36 1020.52 1020.62 1020.91 1021.18 1021.29 1021.36 1021.57 1021.60 1021.61 1021.64 1021.46 1021.37
1014.58 1016.17 1016.89 1017.06 1016.82 1016.68 1017.25 1017.13 1017.27 1018.02 1020.14 1019.29 1018.32 1017.21 1016.44 1017.07 1017.61 1018.34 1018.68 1019.09 1019.49 1019.78 1020.18 1020.39 1020.66 1020.52 1020.72 1020.91 1021.12 1020.97 1020.89 1021.12 1021.39 1021.43 1021.47 1021.63 1021.83 1021.80 1021.85 1021.91 1021.88 1021.82 1021.88 1021.78
1013.53 1015.61 1017.10 1017.23 1017.18 1017.26 1016.48 1016.53 1017.26 1017.46 1018.28 1018.32 1017.55 1017.03 1015.71 1016.66 1017.28 1018.27 1018.69 1019.14 1019.84 1020.21 1020.60 1020.84 1021.10 1021.30 1021.21 1021.49 1021.70 1021.70 1021.72 1021.70 1021.94 1021.95 1022.02 1022.04 1022.24 1022.21 1022.23 1022.27 1022.32 1022.17 1021.96 1021.87
1013.27 1014.23 1017.42 1017.75 1017.29 1016.64 1016.93 1016.64 1016.78 1016.60 1016.86 1016.80 1016.67 1015.55 1015.31 1015.45 1016.33 1017.52 1018.44 1019.09 1019.84 1020.38 1020.78 1021.10 1021.43 1021.82 1021.80 1022.02 1022.24 1022.29 1022.21 1022.22 1022.31 1022.41 1022.44 1022.53 1022.72 1022.88 1022.88 1022.80 1022.79 1022.73 1022.52 1022.20
1013.32 1014.79 1016.73 1017.16 1017.55 1017.31 1016.50 1016.04 1015.80 1015.70 1016.68 1016.92 1016.66 1015.62 1015.69 1015.78 1016.39 1017.50 1018.49 1019.43 1020.16 1020.81 1021.14 1021.38 1021.69 1021.92 1022.14 1022.43 1022.62 1022.91 1022.97 1022.93 1023.22 1023.24 1023.05 1023.05 1023.18 1023.19 1023.16 1023.21 1023.30 1023.21 1023.07 1022.74
1012.94 1014.30 1016.46 1017.61 1017.68 1017.36 1016.64 1016.20 1015.53 1015.49 1015.85 1016.01 1016.10 1015.39 1016.11 1016.42 1016.82 1017.64 1018.48 1019.84 1020.33 1021.05 1021.30 1021.75 1022.03 1022.41 1022.62 1022.88 1023.07 1023.39 1023.48 1023.64 1023.65 1023.83 1023.71 1023.74 1023.74 1023.69 1023.76 1023.70 1023.58 1023.39 1023.20 1022.87
1012.42 1013.80 1014.09 1014.18 1013.82 1014.65 1015.88 1015.39 1015.35 1015.05 1015.17 1014.68 1014.28 1014.72 1015.67 1016.28 1016.51 1017.40 1018.38 1019.35 1020.38 1021.00 1021.42 1021.80 1022.27 1022.81 1023.16 1023.34 1023.42 1023.68 1023.82 1023.97 1024.06 1024.10 1024.21 1024.23 1024.12 1024.20 1024.20 1024.07 1023.93 1023.69 1023.27 1022.90
1012.94 1014.07 1014.30 1014.33 1014.28 1014.37 1014.24 1014.48 1014.70 1014.50 1013.35 1013.71 1012.48 1013.56 1014.04 1014.96 1015.81 1016.55 1017.85 1019.27 1020.28 1021.05 1021.65 1022.08 1022.61 1023.11 1023.40 1023.58 1023.90 1024.07 1024.19 1024.33 1024.49 1024.55 1024.44 1024.58 1024.68 1024.59 1024.61 1024.55 1024.10 1023.80 1023.52 1023.14
1013.23 1013.76 1014.24 1015.06 1015.17 1014.90 1014.60 1014.31 1013.84 1013.23 1013.00 1013.17 1013.09 1013.30 1013.28 1014.45 1016.12 1017.13 1017.88 1018.93 1019.84 1020.80 1021.51 1022.13 1022.76 1023.28 1023.58 1023.95 1024.20 1024.36 1024.60 1024.67 1024.92 1024.99 1025.20 1025.13 1025.15 1025.20 1025.07 1024.87 1024.63 1024.23 1023.78 1023.39
1013.17 1013.75 1014.73 1015.34 1015.60 1015.38 1015.07 1012.72 1012.93 1012.73 1012.40 1012.27 1012.68 1012.37 1013.76 1014.91 1015.84 1016.27 1017.23 1018.44 1019.53 1020.56 1021.35 1022.14 1022.84 1023.41 1023.78 1024.08 1024.53 1024.69 1024.86 1025.04 1025.12 1025.48 1025.56 1025.52 1025.51 1025.36 1025.16 1024.96 1024.63 1024.10 1023.70 1023.33
1012.65 1013.58 1014.46 1015.38 1015.97 1015.15 1012.12 1012.13 1011.99 1012.03 1011.99 1012.18 1012.16 1012.94 1013.34 1013.70 1014.34 1016.13 1017.18 1018.17 1019.38 1020.39 1021.31 1022.28 1022.97 1023.54 1024.12 1024.58 1024.99 1025.05 1025.25 1025.28 1025.47 1025.48 1025.78 1025.81 1025.76 1025.63 1025.36 1025.02 1024.61 1024.14 1023.77 1023.35
1012.21 1012.83 1014.16 1014.91 1015.08 1013.78 1012.77 1012.75 1012.19 1011.97 1011.29 1011.88 1012.10 1013.10 1014.02 1014.79 1015.96 1017.11 1017.84 1018.57 1019.46 1020.49 1021.44 1022.41 1023.14 1023.78 1024.43 1024.85 1025.18 1025.22 1025.48 1025.55 1025.73 1025.84 1025.87 1025.86 1025.83 1025.67 1025.40 1025.06 1024.44 1023.90 1023.49 1023.01
1012.97 1012.38 1013.05 1014.44 1014.09 1013.27 1011.24 1011.84 1012.00 1012.50 1011.89 1011.28 1012.28 1013.34 1014.29 1015.47 1016.24 1016.34 1017.93 1018.94 1020.17 1021.16 1022.04 1022.84 1023.78 1024.47 1024.85 1025.25 1025.36 1025.31 1025.56 1025.66 1025.87 1026.01 1025.89 1025.82 1025.68 1025.56 1025.21 1024.85 1024.49 1023.97 1023.49 1022.66
1013.43 1013.37 1013.29 1013.84 1013.65 1012.82 1012.11 1012.68 1012.97 1013.12 1011.44 1011.30 1011.86 1012.62 1013.98 1014.71 1015.27 1016.40 1018.24 1019.87 1020.85 1021.79 1022.69 1023.47 1024.07 1024.61 1025.21 1025.52 1025.44 1025.66 1026.00 1026.23 1026.49 1026.39 1026.16 1025.81 1025.49 1025.34 1024.93 1024.45 1024.12 1023.69 1023.31 1022.55
1012.30 1013.01 1013.34 1013.82 1013.74 1012.84 1012.04 1013.49 1013.14 1012.09 1012.53 1012.72 1013.12 1013.69 1014.91 1015.82 1016.51 1017.49 1019.07 1020.41 1021.61 1022.48 1023.19 1023.80 1024.31 1025.05 1025.60 1025.90 1026.14 1026.48 1026.61 1026.89 1026.87 1026.75 1026.36 1025.86 1025.31 1024.91 1024.47 1024.06 1023.43 1023.06 1022.84 1022.07
1013.12 1011.96 1012.39 1013.06 1012.22 1011.94 1012.30 1012.76 1012.46 1012.64 1012.86 1013.50 1013.83 1014.55 1015.39 1016.49 1017.39 1018.54 1019.82 1021.04 1022.17 1023.04 1023.80 1024.55 1025.15 1025.79 1026.47 1026.91 1027.06 1027.08 1026.99 1027.01 1026.79 1026.59 1026.23 1025.72 1025.16 1024.63 1024.08 1023.57 1022.95 1022.53 1022.34 1021.67
1013.37 1013.10 1012.79 1013.10 1013.10 1013.06 1013.26 1013.37 1013.25 1013.27 1013.49 1014.01 1014.42 1015.21 1016.00 1017.00 1018.23 1019.31 1020.49 1021.56 1022.65 1023.70 1024.65 1025.50 1026.04 1026.56 1027.08 1027.36 1027.48 1027.53 1027.33 1027.19 1026.97 1026.63 1026.15 1025.70 1025.02 1024.14 1023.52 1023.00 1022.53 1021.89 1021.37 1020.75
1013.38 1013.33 1013.20 1013.48 1013.81 1013.97 1013.85 1013.94 1013.80 1014.26 1014.45 1014.87 1015.70 1016.21 1016.84 1017.77 1019.12 1020.07 1021.24 1022.35 1023.32 1024.27 1025.18 1026.03 1026.72 1027.12 1027.49 1027.71 1027.61 1027.62 1027.72 1027.54 1027.24 1026.88 1026.30 1025.63 1024.79 1023.88 1023.12 1022.55 1021.96 1021.27 1020.38 1020.08
1013.01 1012.71 1012.53 1012.09 1012.05 1012.02 1012.16 1013.15 1013.92 1014.44 1014.99 1015.39 1015.99 1017.43 1018.25 1018.71 1019.76 1020.88 1022.08 1023.14 1024.25 1025.24 1025.99 1026.59 1027.31 1027.88 1028.12 1028.25 1028.45 1028.28 1028.04 1027.65 1027.38 1026.86 1026.20 1025.49 1024.75 1023.91 1023.25 1022.45 1021.02 1020.43 1019.54 1018.81
Thickness
5640 5650 5651 5665 5669 5671 5675 5670 5669 5663 5661 5668 5677 5684 5699 5707 5705 5710 5718 5719 5720 5719 5720 5716 5717 5718 5716 5715 5714 5713 5711 5707 5703 5696 5691 5687 5685 5682 5680 5678 5675 5672 5670 5667
5635 5644 5658 5650 5649 5657 5662 5664 5658 5652 5656 5661 5668 5681 5696 5703 5701 5703 5711 5715 5714 5715 5716 5716 5714 5714 5713 5716 5714 5713 5711 5707 5703 5700 5694 5690 5686 5683 5679 5676 5674 5672 5668 5665
5641 5640 5638 5644 5644 5652 5649 5662 5651 5662 5651 5653 5659 5683 5690 5687 5691 5692 5696 5697 5701 5703 5705 5708 5710 5709 5709 5709 5711 5710 5709 5705 5702 5698 5693 5687 5682 5677 5677 5674 5672 5669 5666 5662
5630 5618 5631 5639 5642 5654 5641 5648 5650 5645 5659 5657 5647 5673 5687 5684 5689 5687 5689 5690 5693 5694 5696 5698 5701 5704 5704 5703 5703 5703 5703 5700 5696 5694 5689 5684 5683 5680 5677 5674 5670 5666 5661 5660
5618 5614 5622 5629 5644 5642 5639 5639 5639 5638 5643 5644 5646 5655 5687 5674 5680 5684 5685 5682 5685 5685 5685 5688 5689 5691 5693 5696 5697 5697 5695 5694 5691 5689 5686 5681 5677 5674 5673 5672 5668 5665 5661 5657
5605 5615 5623 5627 5618 5628 5621 5629 5625 5626 5632 5631 5641 5643 5677 5681 5680 5677 5676 5676 5676 5676 5679 5678 5678 5681 5684 5687 5690 5689 5687 5684 5682 5680 5678 5674 5671 5668 5664 5662 5659 5658 5655 5651
5594 5601 5608 5615 5613 5610 5623 5636 5610 5610 5613 5626 5610 5621 5677 5669 5670 5669 5668 5667 5667 5668 5671 5670 5671 5672 5673 5674 5675 5676 5674 5669 5667 5665 5663 5661 5660 5658 5655 5652 5649 5646 5644 5643
5603 5589 5601 5609 5620 5625 5625 5636 5626 5609 5606 5625 5592 5627 5667 5655 5656 5655 5656 5654 5655 5658 5658 5658 5659 5658 5658 5658 5660 5661 5660 5658 5657 5656 5653 5649 5647 5644 5641 5639 5636 5634 5632 5630
5601 5595 5595 5601 5609 5622 5614 5615 5616 5595 5535 5604 5625 5636 5652 5644 5646 5646 5648 5650 5649 5648 5646 5646 5645 5648 5647 5646 5644 5645 5646 5643 5641 5640 5639 5636 5633 5631 5629 5626 5624 5621 5617 5615
5610 5591 5582 5592 5600 5601 5616 5616 5608 5606 5591 5599 5616 5620 5660 5640 5641 5639 5640 5642 5637 5636 5635 5635 5634 5634 5635 5632 5631 5631 5630 5630 5627 5626 5624 5622 5619 5617 5615 5612 5609 5607 5605 5602
5605 5602 5572 5577 5590 5604 5600 5606 5603 5615 5611 5612 5611 5637 5650 5652 5645 5639 5637 5635 5632 5629 5627 5625 5623 5620 5621 5620 5619 5618 5617 5617 5615 5613 5612 5609 5605 5601 5599 5597 5594 5591 5589 5588
5595 5583 5572 5583 5578 5582 5594 5609 5614 5616 5593 5593 5600 5632 5626 5641 5639 5635 5627 5620 5618 5616 5614 5614 5612 5611 5609 5606 5604 5601 5600 5599 5596 5595 5595 5593 5590 5588 5586 5582 5578 5575 5572 5571
5589 5575 5555 5559 5570 5571 5586 5592 5605 5602 5596 5584 5601 5635 5614 5620 5623 5620 5616 5608 5605 5601 5600 5599 5599 5597 5594 5591 5589 5586 5585 5582 5581 5578 5577 5575 5572 5570 5567 5565 5562 5559 5557 5556
5585 5564 5582 5591 5613 5606 5586 5591 5593 5607 5593 5604 5611 5621 5611 5610 5614 5609 5604 5600 5595 5592 5590 5589 5584 5579 5575 5574 5574 5570 5568 5566 5564 5562 5559 5557 5556 5552 5549 5547 5545 5543 5543 5542
5570 5557 5569 5580 5583 5587 5595 5588 5584 5591 5619 5599 5636 5618 5620 5615 5609 5606 5600 5590 5583 5577 5574 5571 5567 5563 5560 5557 5554 5552 5550 5548 5545 5543 5543 5540 5537 5535 5531 5529 5530 5529 5528 5527
5553 5551 5565 5552 5559 5566 5573 5582 5585 5597 5606 5600 5605 5607 5627 5615 5598 5591 5588 5580 5576 5569 5563 5558 5552 5548 5545 5540 5537 5535 5533 5531 5528 5526 5522 5521 5519 5516 5514 5513 5512 5511 5511 5511
5551 5540 5543 5556 5540 5549 5546 5581 5586 5594 5603 5606 5592 5621 5602 5593 5584 5588 5583 5573 5566 5559 5552 5545 5539 5533 5529 5526 5521 5520 5517 5515 5512 5507 5504 5503 5501 5500 5499 5497 5496 5497 5495 5493
5546 5534 5528 5526 5518 5528 5583 5583 5592 5590 5594 5593 5601 5596 5595 5596 5593 5578 5571 5565 5555 5547 5539 5530 5523 5518 5512 5507 5503 5501 5499 5498 5495 5492 5488 5486 5484 5482 5480 5480 5479 5478 5476 5474
5544 5546 5517 5526 5527 5549 5566 5559 5575 5575 5593 5590 5595 5585 5577 5568 5562 5554 5550 5550 5542 5533 5525 5516 5510 5504 5497 5493 5488 5487 5485 5483 5481 5477 5473 5470 5468 5466 5463 5461 5461 5460 5458 5456
5519 5541 5537 5510 5529 5537 5591 5564 5562 5566 5564 5585 5580 5570 5558 5555 5555 5568 5535 5527 5520 5513 5505 5498 5490 5484 5481 5475 5473 5473 5471 5469 5465 5460 5457 5453 5451 5448 5446 5444 5441 5439 5438 5441
5507 5508 5520 5511 5520 5536 5542 5535 5538 5540 5581 5561 5575 5568 5550 5559 5556 5537 5516 5505 5500 5494 5486 5479 5475 5470 5464 5460 5459 5457 5452 5450 5444 5441 5438 5436 5433 5430 5429 5429 5424 5420 5417 5417
5518 5513 5511 5501 5516 5534 5525 5518 5545 5555 5528 5533 5538 5540 5532 5515 5517 5511 5500 5489 5482 5476 5470 5465 5460 5454 5447 5442 5439 5435 5433 5427 5423 5419 5417 5417 5416 5413 5411 5410 5409 5404 5396 5396
5497 5515 5511 5519 5540 5516 5518 5519 5521 5520 5522 5518 5521 5518 5512 5504 5500 5493 5482 5473 5466 5460 5453 5445 5439 5432 5425 5418 5415 5413 5412 5409 5406 5402 5399 5398 5398 5395 5394 5392 5391 5387 5378 5373
5459 5461 5492 5495 5493 5494 5501 5498 5502 5503 5506 5502 5505 5501 5497 5490 5481 5474 5466 5458 5450 5438 5429 5420 5415 5408 5403 5398 5393 5391 5391 5389 5386 5384 5381 5379 5380 5380 5378 5375 5371 5368 5364 5357
5460 5457 5460 5464 5461 5469 5479 5475 5485 5481 5483 5482 5478 5478 5475 5470 5463 5457 5444 5434 5427 5417 5409 5402 5394 5388 5383 5378 5374 5373 5370 5368 5366 5363 5361 5360 5360 5361 5360 5357 5352 5349 5347 5335
5442 5459 5476 5493 5479 5491 5495 5473 5468 5468 5467 5466 5464 5453 5448 5449 5442 5432 5422 5413 5404 5394 5387 5382 5374 5366 5362 5357 5350 5349 5348 5347 5345 5346 5345 5342 5338 5338 5335 5333 5341 5334 5328 5323